KUIPER-00139

Last updated on Mon Oct 20 2025 00:02:06 GMT+0000 (Coordinated Universal Time)

1 65765U 25217D 25292.26872755 .00028389 00000+0 82120-3 0 9993 2 65765 51.8673 327.9194 0006579 186.5608 173.5293 15.35372979 3663
UTC large
Height (km)
Speed (km/s)
/
Latitude / Longitude
Inclination (degrees)
Orbital Period (minutes)
Azimuth
Elevation
Range (km)
Doppler Factor

Next 0 passes for location: London (51.5072 / 0.1276)

Sorry there are no passes over London.